Temp
12 12 11 11 11 11 11 11 11 11 11 11 11 11 10 10 10 10 10 10 10 10 10 9 9 9 9 9 9 9 8 8 8 8 8 8 8 8 8 8 7 7 7 7 7 7 7 7 7 7 7 7 7 7 7 7 7 7 7 7 7 7 7 7 7 7 7 7 7 7 7 7 7 7 7 7 8 8 8 8 8 8 8 8 9
11 11 11 11 11 11 11 11 11 11 11 11 11 11 10 10 10 10 10 10 9 9 9 9 9 9 9 9 9 9 8 8 8 8 8 8 8 8 8 8 7 7 7 7 7 7 7 7 7 7 7 7 7 7 7 7 7 7 7 7 7 7 7 7 7 7 7 7 7 7 7 7 7 7 7 7 7 7 8 8 8 8 8 8 8
11 11 11 11 11 11 11 11 11 11 11 11 11 11 10 10 10 10 10 9 9 9 9 9 9 9 9 9 9 8 8 8 8 8 8 8 8 8 8 8 7 7 7 7 7 7 7 7 7 7 7 7 7 7 7 7 7 7 7 7 7 7 7 7 7 7 7 7 7 7 7 7 7 7 7 7 7 7 7 7 8 8 8 8 8
12 11 11 11 11 11 11 11 11 11 11 11 11 10 10 10 10 9 9 9 9 9 9 9 9 9 9 9 8 8 8 8 8 8 8 8 8 8 8 8 7 7 7 7 7 7 7 7 7 7 7 7 7 7 7 7 7 7 7 7 7 7 7 7 7 7 7 7 7 7 7 7 7 7 7 7 7 7 7 7 7 8 8 8 8
12 11 11 11 11 11 11 11 11 10 10 10 11 10 10 10 9 9 9 9 9 9 9 9 9 8 8 8 8 8 8 8 8 8 8 8 8 8 8 8 7 7 7 7 7 7 7 7 7 7 7 7 7 7 7 7 7 7 7 7 7 7 7 7 7 7 7 7 7 7 7 7 7 7 7 7 7 7 7 7 7 7 8 8 8
11 11 11 11 11 11 11 11 10 10 10 10 10 10 10 9 9 9 9 8 8 9 9 9 8 8 8 8 8 8 8 8 8 8 8 8 8 8 8 7 7 7 7 7 7 7 7 7 7 7 7 7 7 7 7 7 7 7 7 7 7 7 7 7 7 7 7 7 7 7 7 7 7 7 7 7 7 7 7 7 7 7 7 8 8
11 11 11 11 10 11 11 10 10 10 10 10 10 10 9 9 9 9 8 8 8 8 8 8 8 8 8 8 8 8 8 8 8 8 8 8 7 7 7 7 7 7 7 7 7 7 7 7 7 7 7 7 7 7 7 7 7 7 7 7 7 7 7 7 7 7 7 7 7 7 7 7 7 7 7 7 7 7 7 7 7 7 7 7 8
11 11 11 11 10 10 10 10 10 10 10 10 10 9 9 9 9 8 8 8 8 8 8 8 8 8 8 8 8 8 8 8 8 8 8 7 7 7 7 7 7 7 7 7 7 7 7 7 7 7 7 7 7 7 7 7 7 7 7 7 7 7 7 7 7 7 7 7 7 7 7 7 7 7 7 7 7 7 7 7 7 7 7 7 7
11 11 11 10 10 10 10 10 10 9 9 9 9 9 9 8 8 8 8 8 8 8 8 7 7 7 7 7 7 7 8 8 8 8 7 7 7 6 6 6 7 7 7 7 7 7 7 7 7 7 7 7 7 7 7 7 7 7 7 7 7 7 7 7 7 7 7 7 7 7 7 7 7 7 7 7 7 7 7 7 7 7 7 7 7
10 11 10 10 10 10 9 9 9 9 9 9 9 8 8 8 8 8 8 8 7 7 7 7 7 7 7 7 7 7 8 7 7 7 7 7 6 6 6 6 6 7 6 7 7 7 7 7 7 7 7 7 7 7 7 7 7 7 7 7 7 7 7 7 7 7 7 7 7 7 7 7 7 7 7 7 7 7 7 7 7 7 7 7 7
10 10 10 10 10 9 9 9 9 8 8 8 8 8 8 8 8 8 7 7 7 7 7 7 7 7 7 7 7 7 7 7 7 7 6 6 6 6 5 6 6 6 6 6 6 7 7 7 7 7 7 7 7 7 7 7 7 7 7 7 7 7 7 7 7 7 7 7 7 7 7 7 7 7 7 7 7 7 7 7 7 7 7 7 7
10 10 10 10 9 9 9 9 8 8 8 8 8 7 7 7 7 7 7 7 6 6 7 7 7 7 7 7 7 7 7 7 7 6 6 6 6 6 5 5 6 6 6 6 6 6 6 6 7 7 7 6 6 7 7 7 7 7 7 7 7 7 7 7 7 7 7 7 7 7 7 7 7 7 7 7 7 7 7 7 7 7 7 7 7
9 9 9 9 9 9 9 8 8 7 7 7 8 7 7 7 7 7 7 6 6 6 6 7 7 7 7 7 7 7 7 6 6 6 6 6 5 5 5 5 5 6 6 6 6 6 6 6 6 6 6 6 6 6 7 7 7 7 7 7 7 7 7 7 7 7 7 7 7 7 7 7 7 7 7 7 7 7 7 7 7 7 7 7 7
9 9 8 9 9 8 8 8 8 7 7 7 7 7 7 7 7 7 6 6 6 6 6 6 6 6 6 6 6 6 6 6 6 6 6 6 5 5 5 5 5 6 6 6 6 6 6 6 6 6 6 6 6 7 7 7 7 7 7 7 7 7 7 7 7 7 7 7 7 7 7 7 7 7 7 7 7 7 7 7 7 7 7 7 7
9 8 8 8 8 8 8 8 7 7 7 7 7 7 7 7 7 6 6 6 6 6 6 6 6 6 6 6 6 6 6 6 6 6 6 6 5 5 5 5 5 5 6 6 6 6 6 6 6 6 6 6 6 6 7 6 7 7 7 7 7 7 7 7 7 7 7 7 7 7 7 7 7 7 7 7 7 7 7 7 7 7 7 7 7
8 8 8 8 8 8 7 7 7 7 7 7 7 7 7 7 6 6 6 6 6 5 5 5 5 5 6 6 6 6 6 6 6 6 6 5 5 5 5 5 5 5 5 6 6 6 5 5 6 6 6 6 6 6 6 6 7 7 7 7 7 7 7 7 6 7 7 7 7 7 7 7 7 7 7 7 7 7 7 7 7 7 7 7 7
8 8 8 8 7 7 7 7 7 6 6 6 6 6 6 6 6 6 6 6 5 5 5 5 5 5 5 5 5 5 5 5 5 6 5 5 5 5 5 5 5 5 5 5 6 5 5 5 5 6 6 6 6 6 6 6 7 6 6 7 7 7 7 7 6 7 7 7 7 7 7 7 7 7 7 7 7 7 7 7 7 7 7 7 7
8 8 7 7 7 7 6 6 6 6 6 5 5 6 6 6 6 6 5 5 5 5 5 5 5 5 5 5 5 5 5 5 5 5 5 5 5 5 4 4 4 5 5 5 5 5 5 5 5 5 6 6 6 6 6 6 6 6 6 6 6 7 7 7 7 7 7 7 7 7 7 7 7 7 7 7 7 7 7 7 7 7 7 7 7
8 8 7 6 6 6 6 6 6 5 5 5 5 5 6 6 5 5 5 5 5 5 5 5 5 5 5 5 5 5 5 5 5 5 5 5 5 4 4 4 4 5 5 5 5 5 5 5 5 5 5 5 6 6 6 6 6 6 6 6 6 6 6 6 6 6 7 7 7 7 7 7 7 7 7 7 7 7 7 7 7 7 7 7 7
8 8 7 6 6 6 5 5 5 5 5 5 5 5 5 5 5 5 5 5 5 5 5 5 5 5 5 5 5 5 5 5 5 5 5 5 4 4 4 4 4 4 4 5 5 5 5 5 5 5 5 5 5 5 6 6 6 6 6 6 6 6 6 6 6 6 6 7 7 7 7 7 7 7 7 7 7 7 7 7 7 7 7 7 7
8 7 7 6 6 6 5 5 5 5 5 5 5 5 5 5 5 5 5 4 4 4 5 4 4 5 5 5 5 5 5 5 5 5 5 4 4 4 4 4 4 4 4 4 5 5 5 5 5 5 5 5 5 5 5 6 6 6 6 6 6 6 6 6 6 6 6 6 7 7 7 7 7 7 7 7 7 7 7 7 7 7 7 7 7
7 7 7 6 6 6 6 5 5 5 5 5 5 5 5 5 5 5 5 4 4 4 4 4 4 4 5 4 4 4 4 4 4 4 4 4 4 4 4 4 4 4 4 4 4 5 5 5 5 5 5 5 5 5 5 5 6 6 6 6 6 6 6 6 6 6 6 6 6 7 7 7 7 7 7 7 7 7 7 7 7 7 7 7 7
7 7 7 6 6 6 6 5 5 5 5 5 5 5 5 5 5 5 4 4 4 4 4 4 4 4 4 4 4 4 4 4 4 4 4 4 4 4 4 4 4 4 4 4 4 4 5 5 5 5 5 5 5 5 5 5 5 5 5 5 5 5 5 5 6 6 6 6 6 6 7 7 7 7 7 7 7 7 7 7 7 7 7 7 7
7 6 6 6 6 6 5 5 5 5 5 5 5 5 4 4 5 5 4 4 4 4 4 4 4 4 4 4 4 4 4 4 4 4 4 4 4 4 4 3 4 4 4 4 4 4 4 5 5 5 5 5 5 5 5 5 5 5 5 5 5 5 5 5 5 5 5 5 6 6 6 6 7 7 7 7 7 7 7 7 7 7 7 7 7
6 6 6 6 6 6 5 5 5 5 5 5 5 5 5 4 5 4 4 4 4 3 4 4 4 4 4 4 4 4 4 4 3 3 3 4 4 4 4 3 3 3 4 4 4 4 4 4 4 4 4 5 5 5 5 5 4 4 4 4 4 4 4 5 5 4 4 5 5 6 6 6 6 6 6 6 6 7 7 7 7 7 7 7 7
6 6 6 6 6 6 5 5 5 5 5 5 5 5 5 4 4 4 4 4 4 3 4 4 4 4 4 4 4 4 3 3 3 3 3 3 3 3 3 3 3 3 3 4 4 4 4 4 4 4 4 4 5 5 4 4 4 4 4 4 4 4 4 4 4 4 4 5 5 5 5 6 6 6 6 6 6 6 6 7 7 7 7 7 7
7 7 6 6 6 5 5 5 5 5 5 5 5 4 4 4 4 4 4 4 4 4 4 3 4 4 4 4 3 3 3 3 3 3 3 3 3 3 3 3 3 3 3 4 4 4 4 4 4 4 4 4 4 4 4 4 4 4 4 4 4 4 4 4 4 4 4 4 5 5 5 5 6 6 6 6 6 6 6 6 6 7 7 7 7
7 6 6 6 6 5 5 5 5 5 4 4 4 4 4 4 4 4 4 4 4 4 4 4 4 3 3 4 3 3 3 3 3 3 3 3 3 3 3 3 3 3 3 3 4 4 4 4 4 4 4 4 4 4 4 4 4 4 4 4 4 4 4 4 4 4 4 4 4 4 5 5 5 6 6 6 6 6 6 6 6 6 7 7 7
6 6 6 6 5 5 5 5 5 4 4 4 4 4 4 4 4 4 4 4 4 4 4 3 3 3 3 3 3 3 3 4 4 3 4 4 3 3 3 3 3 3 3 3 3 3 3 3 4 4 4 4 4 4 4 4 4 4 4 4 4 3 3 3 3 3 4 4 4 4 5 5 5 5 5 6 6 6 6 6 6 6 6 6 6
6 6 6 6 5 5 5 5 5 4 4 4 4 4 4 4 4 4 4 4 4 4 3 3 4 4 3 3 3 3 3 4 4 4 4 4 3 3 3 3 3 3 3 3 3 3 3 3 4 4 4 4 4 4 4 4 4 4 4 4 3 3 3 3 3 3 3 3 4 4 4 5 5 5 5 5 5 6 6 6 6 6 6 6 6
6 6 6 6 5 5 5 5 4 4 4 4 4 4 4 4 4 4 4 4 4 4 4 4 4 3 3 3 3 4 3 3 3 4 4 3 3 3 3 3 3 3 3 3 3 3 3 4 4 4 4 4 4 4 4 4 4 4 3 3 3 3 3 3 3 3 3 3 3 3 4 4 5 5 5 5 5 5 6 6 6 6 6 6 6
6 6 6 5 5 5 5 5 4 4 4 4 4 4 4 4 4 4 4 4 4 4 4 4 4 3 3 4 4 4 3 3 3 3 3 3 3 3 3 3 3 3 3 3 3 3 3 3 3 4 4 4 4 3 3 4 4 3 3 3 3 3 3 3 3 3 3 3 3 3 3 3 4 4 4 5 5 5 5 5 5 5 5 5 6
7 6 6 5 5 5 5 4 4 4 4 4 4 4 4 4 4 4 4 4 4 4 4 4 4 3 3 3 3 3 3 3 3 3 3 3 3 3 3 3 3 3 3 3 3 3 3 3 3 3 4 4 4 3 3 3 3 3 3 3 3 3 3 3 3 3 3 3 3 3 3 3 4 4 4 4 5 5 5 5 5 5 5 5 5
7 6 6 5 5 5 5 4 5 4 4 4 4 5 4 4 4 4 4 4 4 4 4 4 4 3 3 3 3 3 3 3 3 3 3 3 3 3 3 3 3 3 3 3 3 3 3 3 3 3 3 3 3 3 3 3 3 3 3 3 3 3 3 3 3 3 3 3 3 3 3 3 3 3 4 4 4 4 4 4 5 5 5 5 5
6 6 6 5 5 5 5 5 5 4 4 4 5 5 4 4 4 4 4 5 5 5 5 4 4 4 3 3 3 3 3 3 3 3 3 3 3 3 3 3 3 3 3 3 3 3 3 3 3 3 3 3 3 3 3 3 3 3 3 3 3 3 3 3 3 3 3 3 3 3 3 3 3 3 3 3 3 3 4 4 4 4 4 4 4
6 6 6 5 4 4 5 5 4 4 4 5 5 5 5 5 5 5 5 5 5 5 5 4 4 4 4 4 4 3 3 3 3 3 3 3 3 3 3 3 3 3 3 3 3 3 3 3 3 3 3 3 3 3 3 3 3 3 3 3 3 3 3 3 3 3 3 3 3 3 3 3 3 3 3 3 3 3 3 3 4 4 4 4 4
6 5 6 5 4 4 5 5 4 4 5 5 5 5 5 5 5 5 5 5 5 5 5 5 5 4 4 4 4 4 4 4 4 4 3 3 3 3 3 3 3 3 3 3 3 3 3 3 3 3 3 3 3 3 3 3 3 3 3 3 3 3 3 3 3 2 3 3 3 3 3 3 3 3 3 3 3 3 3 3 3 4 4 4 4
6 5 5 5 4 4 5 5 4 5 5 5 5 5 5 5 5 5 5 5 5 4 4 4 4 4 4 4 4 4 4 4 4 3 3 3 3 3 3 3 3 3 3 3 3 3 3 3 3 3 3 3 3 3 3 3 3 3 3 3 3 3 3 3 3 3 3 3 3 3 3 3 3 3 3 3 3 3 3 3 3 3 3 3 4
6 5 5 5 5 4 5 5 4 5 5 5 5 5 5 5 5 5 5 4 4 4 4 4 4 4 4 4 4 4 4 4 3 3 3 3 3 3 3 3 3 3 3 3 3 3 3 3 3 3 3 3 3 3 3 3 3 3 2 2 2 2 2 2 2 2 3 2 3 3 3 3 2 2 2 2 2 2 3 3 3 3 3 3 3
6 5 5 5 5 5 5 5 4 5 5 5 5 5 5 5 5 5 5 4 4 4 4 4 4 4 4 4 4 4 4 4 3 3 3 3 3 3 3 3 3 3 3 3 3 3 3 3 3 3 3 3 3 3 3 3 3 3 2 2 2 2 2 2 2 2 2 2 3 3 3 2 2 2 2 2 2 2 2 2 2 2 3 3 3
6 5 5 5 5 5 5 5 4 5 5 5 5 5 5 5 5 5 4 4 4 4 4 4 4 4 4 4 4 4 4 4 4 3 3 3 3 3 3 3 3 3 3 3 2 2 2 3 3 3 3 3 3 3 3 3 3 3 2 2 2 2 2 2 2 2 2 2 2 2 2 2 2 2 2 2 2 2 2 2 2 2 2 2 2
6 6 5 5 5 5 5 5 4 5 5 5 5 5 5 5 5 4 4 4 4 4 4 4 4 4 4 4 4 4 4 4 4 3 3 3 3 3 3 3 3 3 2 2 2 2 2 2 2 3 3 3 3 3 3 3 3 2 2 2 2 2 2 2 2 2 2 2 2 2 2 2 2 2 2 2 2 2 2 2 2 2 2 2 2
6 6 5 5 5 5 5 4 4 5 5 5 5 5 5 5 4 4 4 4 4 4 4 4 4 4 4 4 4 4 4 4 3 3 3 3 3 2 2 2 3 2 2 2 2 2 2 2 3 3 3 3 3 3 3 3 3 2 2 2 2 2 2 2 2 2 2 2 2 2 2 2 2 2 2 2 2 2 2 2 2 2 2 2 2
6 6 5 5 5 5 5 4 4 5 5 5 5 5 5 4 4 4 4 4 4 4 4 4 4 4 4 4 4 4 4 4 3 3 2 2 2 2 2 2 2 2 2 2 2 2 2 2 3 3 3 3 3 3 3 3 3 3 2 2 2 2 2 2 2 2 2 2 2 2 2 2 2 2 2 2 2 2 2 2 2 2 2 2 2
6 6 6 5 5 5 5 4 4 5 5 5 5 4 4 4 4 4 4 4 4 4 4 4 4 4 4 4 4 4 4 4 4 3 3 2 2 2 2 2 2 2 2 2 2 2 2 2 2 3 3 3 3 3 3 3 3 3 2 2 2 2 2 2 2 2 2 2 2 2 2 2 2 2 2 2 2 2 2 2 2 2 2 2 2
6 6 5 5 5 4 4 4 4 5 5 5 4 4 4 4 4 4 4 4 3 3 3 3 3 3 3 3 3 4 4 4 3 3 3 3 2 2 2 2 2 2 2 2 2 2 2 2 2 2 3 3 3 3 3 3 3 2 2 2 2 2 2 2 2 2 2 2 2 2 2 2 2 2 2 2 2 2 2 2 2 2 2 2 2
5 5 5 5 5 4 4 4 4 4 5 4 4 4 4 4 4 4 3 3 3 3 3 3 3 3 3 3 3 3 3 3 3 3 3 3 2 2 2 2 2 2 2 2 2 2 2 2 2 2 2 2 2 2 2 2 2 2 2 2 2 2 2 2 2 2 2 2 2 2 2 2 2 2 2 2 2 2 2 2 2 1 1 1 1
5 5 5 5 5 4 4 4 4 4 4 4 4 4 4 4 4 3 3 3 3 3 3 3 3 3 3 3 3 3 3 3 3 3 3 3 2 2 2 2 2 2 2 2 1 1 1 1 2 2 2 2 2 2 2 2 2 2 2 2 2 2 2 2 2 2 2 2 2 2 2 2 2 2 2 2 2 2 2 2 2 1 1 1 1
5 5 5 5 5 4 4 4 4 4 4 4 4 4 4 4 3 3 3 3 3 3 3 3 3 3 3 3 3 3 3 3 3 3 3 3 2 2 2 1 1 1 1 1 1 1 1 1 1 2 2 2 2 2 2 2 2 2 1 2 2 2 2 2 1 1 2 2 2 1 1 1 1 2 2 2 2 2 2 2 1 1 1 1 1
5 5 5 5 4 4 4 4 4 4 4 4 4 4 3 3 3 3 3 3 3 3 3 3 2 2 2 2 2 2 3 3 3 3 3 3 2 2 1 1 1 1 1 1 1 1 1 1 1 1 1 1 1 1 2 2 2 1 1 1 2 1 1 1 1 1 1 1 1 2 1 1 1 2 2 2 2 1 1 1 1 1 1 1 1
5 5 5 4 4 4 4 4 4 4 4 4 4 4 3 3 3 3 3 3 3 3 3 2 2 2 2 2 2 2 2 3 3 3 3 3 2 2 1 1 1 1 1 1 1 1 1 1 1 1 1 1 1 1 1 1 1 1 1 2 1 1 1 1 1 1 1 1 1 2 2 1 1 1 1 1 1 1 1 1 1 1 1 1 1
Height
3157 3157 3158 3159 3160 3162 3163 3163 3164 3164 3165 3165 3166 3166 3167 3167 3167 3167 3168 3168 3169 3169 3170 3170 3171 3171 3171 3171 3171 3171 3171 3171 3171 3171 3172 3172 3173 3174 3175 3176 3177 3177 3178 3179 3179 3180 3181 3183 3184 3184 3185 3186 3186 3187 3187 3187 3188 3188 3188 3188 3188 3188 3187 3187 3187 3187 3186 3185 3184 3184 3183 3182 3181 3180 3179 3179 3178 3177 3176 3175 3174 3172 3172 3170 3169
3156 3157 3158 3159 3160 3161 3162 3163 3163 3164 3164 3165 3165 3166 3166 3166 3166 3167 3167 3168 3168 3169 3170 3170 3171 3171 3171 3171 3171 3171 3171 3171 3171 3171 3172 3172 3173 3174 3175 3176 3177 3178 3179 3179 3180 3181 3182 3183 3184 3185 3186 3186 3187 3188 3188 3188 3188 3189 3189 3189 3189 3189 3189 3189 3188 3188 3187 3187 3186 3185 3184 3183 3183 3182 3181 3180 3180 3179 3178 3177 3175 3174 3173 3172 3170
3155 3157 3158 3159 3160 3160 3161 3162 3163 3163 3164 3165 3165 3165 3165 3165 3166 3166 3167 3168 3169 3169 3170 3171 3171 3171 3171 3171 3171 3172 3172 3172 3172 3171 3172 3172 3173 3174 3175 3176 3177 3178 3179 3180 3181 3181 3182 3183 3184 3185 3186 3187 3187 3188 3189 3189 3189 3190 3190 3190 3190 3190 3190 3190 3189 3189 3189 3188 3187 3187 3186 3185 3184 3183 3183 3182 3181 3180 3179 3179 3177 3176 3175 3173 3172
3155 3156 3157 3158 3159 3160 3161 3162 3162 3163 3164 3164 3164 3164 3165 3165 3165 3166 3167 3168 3169 3169 3170 3171 3171 3171 3171 3172 3172 3172 3172 3172 3172 3172 3172 3172 3173 3174 3175 3176 3177 3178 3179 3180 3181 3182 3183 3184 3184 3185 3186 3187 3188 3189 3189 3190 3190 3190 3191 3191 3191 3191 3191 3191 3190 3190 3190 3189 3189 3188 3187 3187 3186 3185 3184 3183 3183 3182 3181 3180 3179 3178 3177 3175 3173
3155 3156 3157 3158 3159 3160 3161 3162 3162 3162 3163 3163 3163 3164 3164 3164 3165 3166 3167 3168 3169 3169 3170 3171 3171 3171 3172 3172 3172 3172 3172 3172 3172 3172 3172 3172 3173 3173 3175 3176 3177 3178 3179 3180 3181 3182 3183 3184 3185 3186 3187 3188 3189 3189 3190 3191 3191 3191 3191 3191 3192 3192 3192 3192 3192 3191 3191 3191 3190 3189 3189 3188 3188 3187 3186 3185 3184 3183 3183 3182 3181 3180 3179 3178 3176
3155 3156 3157 3158 3159 3160 3161 3161 3162 3162 3162 3163 3163 3163 3163 3164 3165 3166 3167 3168 3169 3169 3170 3171 3171 3171 3172 3172 3172 3172 3172 3172 3172 3172 3172 3172 3173 3173 3174 3175 3177 3178 3179 3181 3182 3183 3184 3185 3186 3186 3187 3188 3189 3190 3190 3191 3192 3192 3192 3192 3192 3193 3193 3193 3192 3192 3192 3192 3191 3190 3190 3190 3189 3189 3188 3187 3186 3185 3184 3183 3183 3182 3181 3180 3178
3155 3156 3157 3158 3158 3159 3160 3160 3161 3161 3162 3162 3162 3162 3163 3163 3164 3165 3166 3167 3168 3169 3170 3170 3171 3171 3172 3172 3172 3172 3172 3172 3172 3172 3172 3172 3173 3173 3174 3175 3176 3178 3179 3180 3182 3183 3184 3185 3186 3187 3187 3188 3189 3190 3191 3191 3192 3193 3193 3193 3193 3193 3193 3193 3193 3193 3193 3193 3192 3192 3192 3191 3191 3190 3189 3188 3187 3187 3186 3185 3184 3183 3182 3181 3180
3154 3155 3156 3157 3158 3159 3159 3160 3160 3161 3161 3162 3162 3162 3162 3163 3164 3165 3166 3167 3168 3169 3169 3170 3171 3171 3172 3172 3172 3172 3172 3172 3172 3172 3172 3172 3173 3173 3174 3175 3176 3177 3179 3180 3181 3182 3184 3185 3186 3187 3187 3188 3189 3190 3191 3192 3192 3193 3193 3193 3194 3194 3194 3194 3194 3194 3194 3193 3193 3193 3193 3193 3192 3192 3191 3190 3189 3188 3187 3186 3186 3185 3184 3183 3182
3154 3155 3156 3157 3158 3158 3159 3159 3160 3160 3161 3161 3161 3161 3162 3163 3164 3165 3165 3166 3167 3168 3169 3170 3171 3171 3172 3172 3172 3172 3172 3172 3172 3172 3172 3172 3173 3174 3174 3175 3175 3177 3178 3179 3181 3182 3183 3184 3185 3186 3187 3188 3189 3190 3191 3192 3193 3193 3194 3194 3194 3194 3195 3195 3195 3195 3194 3194 3194 3194 3194 3194 3193 3193 3192 3191 3191 3190 3189 3188 3187 3187 3186 3185 3184
3155 3155 3156 3157 3157 3157 3158 3159 3159 3159 3160 3160 3160 3161 3161 3162 3163 3164 3165 3166 3167 3168 3169 3170 3170 3171 3171 3172 3172 3172 3172 3172 3172 3172 3172 3173 3173 3173 3174 3175 3175 3176 3177 3178 3180 3181 3183 3184 3185 3186 3187 3188 3189 3190 3191 3192 3193 3193 3194 3194 3194 3195 3195 3195 3195 3195 3195 3195 3195 3195 3195 3195 3194 3194 3194 3193 3192 3191 3190 3189 3189 3188 3188 3187 3186
3155 3155 3155 3156 3156 3156 3157 3157 3158 3158 3159 3159 3160 3160 3161 3161 3162 3163 3164 3165 3166 3167 3168 3169 3170 3171 3171 3172 3172 3171 3172 3172 3172 3172 3173 3173 3173 3173 3174 3175 3175 3175 3176 3177 3179 3180 3182 3183 3184 3185 3186 3188 3189 3190 3191 3192 3192 3193 3194 3194 3195 3195 3195 3196 3196 3196 3196 3196 3196 3196 3195 3195 3195 3195 3195 3194 3193 3192 3192 3191 3190 3190 3189 3188 3188
3154 3154 3154 3154 3155 3155 3155 3156 3156 3157 3157 3158 3159 3160 3160 3161 3162 3163 3164 3165 3166 3167 3168 3169 3170 3170 3171 3171 3171 3171 3171 3172 3172 3172 3172 3173 3173 3173 3173 3174 3175 3175 3176 3176 3177 3179 3180 3182 3183 3185 3186 3186 3188 3189 3190 3191 3192 3193 3194 3194 3195 3195 3196 3196 3196 3196 3196 3197 3196 3196 3196 3196 3196 3196 3196 3195 3194 3194 3193 3192 3192 3191 3191 3190 3189
3154 3153 3153 3153 3153 3153 3154 3155 3155 3156 3156 3157 3158 3159 3160 3161 3162 3162 3163 3164 3165 3166 3167 3168 3169 3170 3170 3170 3170 3171 3171 3171 3172 3172 3172 3172 3172 3172 3173 3173 3174 3174 3175 3175 3176 3177 3179 3180 3182 3184 3185 3185 3187 3188 3189 3191 3191 3192 3193 3194 3194 3195 3196 3196 3196 3197 3197 3197 3197 3197 3197 3197 3197 3196 3196 3196 3196 3195 3194 3194 3193 3193 3192 3191 3191
3153 3152 3152 3152 3152 3153 3154 3154 3154 3155 3155 3156 3157 3158 3159 3160 3161 3162 3163 3163 3164 3165 3166 3167 3168 3169 3169 3170 3170 3170 3171 3171 3171 3171 3171 3171 3172 3172 3172 3172 3173 3173 3174 3174 3175 3176 3178 3179 3180 3182 3184 3185 3186 3187 3188 3189 3190 3192 3192 3193 3194 3194 3195 3196 3196 3197 3197 3197 3197 3197 3197 3197 3197 3197 3197 3197 3197 3196 3196 3195 3194 3194 3193 3193 3192
3153 3152 3151 3151 3152 3153 3154 3153 3154 3154 3154 3155 3155 3156 3157 3158 3160 3161 3162 3162 3163 3164 3165 3166 3167 3168 3169 3169 3170 3170 3170 3171 3171 3171 3171 3171 3171 3171 3171 3171 3172 3172 3173 3173 3174 3175 3176 3178 3179 3181 3182 3183 3184 3186 3187 3188 3189 3191 3192 3192 3193 3194 3195 3195 3196 3196 3197 3197 3198 3198 3198 3198 3198 3198 3198 3198 3198 3197 3197 3196 3196 3195 3194 3194 3194
3152 3151 3151 3151 3152 3153 3153 3153 3153 3153 3153 3154 3154 3155 3156 3157 3158 3160 3161 3162 3163 3163 3164 3166 3167 3168 3168 3169 3169 3170 3170 3170 3170 3170 3170 3170 3170 3170 3170 3171 3171 3172 3172 3173 3173 3174 3175 3176 3178 3179 3181 3182 3183 3185 3186 3187 3189 3190 3191 3192 3193 3193 3194 3195 3195 3196 3197 3197 3198 3198 3198 3198 3198 3198 3198 3198 3198 3198 3198 3197 3197 3196 3196 3195 3195
3151 3151 3150 3150 3151 3152 3152 3152 3152 3152 3152 3153 3153 3154 3155 3156 3157 3158 3160 3161 3162 3162 3164 3165 3166 3167 3168 3169 3169 3169 3169 3169 3169 3169 3169 3169 3170 3169 3169 3170 3170 3171 3172 3172 3173 3173 3174 3175 3176 3178 3180 3181 3182 3184 3185 3187 3188 3189 3190 3191 3192 3193 3193 3194 3195 3196 3196 3197 3198 3198 3198 3198 3198 3199 3199 3199 3199 3199 3198 3198 3197 3197 3197 3196 3196
3150 3149 3148 3150 3151 3151 3151 3151 3150 3151 3151 3151 3152 3153 3154 3155 3156 3157 3158 3160 3161 3162 3163 3165 3166 3167 3168 3168 3169 3169 3169 3168 3168 3168 3168 3169 3169 3169 3169 3169 3169 3170 3171 3172 3172 3173 3173 3174 3175 3177 3178 3180 3181 3183 3184 3186 3187 3188 3189 3190 3191 3192 3193 3194 3194 3195 3196 3197 3197 3198 3198 3198 3198 3199 3199 3199 3199 3199 3199 3199 3198 3198 3197 3197 3196
3149 3148 3147 3148 3149 3149 3149 3149 3149 3149 3149 3150 3150 3151 3153 3155 3156 3156 3157 3159 3160 3162 3163 3165 3166 3167 3168 3168 3168 3168 3168 3167 3167 3168 3168 3168 3168 3168 3168 3169 3169 3170 3170 3171 3172 3172 3173 3173 3174 3175 3177 3178 3180 3182 3183 3184 3186 3187 3188 3189 3190 3191 3192 3193 3193 3194 3195 3196 3196 3197 3198 3198 3198 3198 3199 3199 3199 3199 3199 3199 3199 3198 3198 3198 3197
3148 3147 3147 3147 3147 3147 3148 3148 3148 3149 3149 3148 3148 3149 3151 3153 3154 3155 3156 3158 3159 3161 3162 3164 3165 3166 3167 3167 3168 3167 3167 3167 3167 3167 3167 3167 3168 3168 3168 3169 3169 3169 3170 3170 3171 3171 3172 3173 3174 3174 3175 3177 3178 3180 3182 3183 3184 3185 3187 3188 3189 3190 3191 3191 3192 3193 3194 3195 3195 3196 3197 3197 3198 3198 3198 3199 3199 3199 3199 3199 3199 3199 3199 3198 3198
3147 3147 3147 3146 3146 3146 3146 3148 3147 3147 3147 3148 3148 3148 3149 3150 3153 3154 3156 3157 3158 3160 3161 3163 3165 3166 3166 3167 3167 3167 3167 3167 3167 3167 3167 3167 3168 3168 3168 3168 3168 3169 3169 3170 3170 3171 3171 3172 3173 3174 3174 3175 3176 3178 3180 3181 3183 3184 3185 3186 3188 3188 3189 3190 3191 3192 3193 3194 3194 3195 3195 3196 3197 3198 3198 3198 3198 3199 3199 3199 3199 3199 3199 3198 3198
3147 3147 3147 3147 3147 3147 3147 3147 3147 3147 3147 3148 3149 3148 3149 3150 3152 3154 3155 3157 3157 3159 3161 3163 3164 3165 3166 3166 3166 3166 3166 3166 3167 3166 3167 3167 3167 3167 3168 3168 3168 3169 3169 3169 3170 3170 3170 3171 3171 3172 3173 3174 3175 3176 3178 3180 3181 3183 3184 3185 3186 3187 3187 3188 3189 3190 3191 3192 3193 3193 3194 3195 3196 3196 3197 3197 3198 3198 3198 3199 3199 3199 3199 3199 3198
3146 3146 3146 3147 3147 3148 3148 3147 3146 3147 3148 3148 3148 3148 3149 3151 3153 3155 3156 3156 3156 3158 3160 3162 3164 3164 3165 3165 3165 3165 3165 3166 3166 3166 3166 3167 3166 3167 3167 3167 3168 3168 3168 3168 3169 3169 3169 3170 3170 3171 3172 3172 3173 3175 3176 3178 3180 3181 3182 3183 3184 3185 3186 3187 3188 3188 3189 3190 3191 3192 3193 3194 3194 3195 3196 3196 3197 3197 3198 3198 3198 3198 3199 3199 3198
3146 3146 3146 3147 3147 3148 3148 3147 3145 3147 3150 3149 3148 3149 3150 3152 3154 3155 3155 3155 3156 3158 3160 3162 3163 3164 3164 3164 3164 3165 3165 3165 3165 3165 3165 3165 3165 3166 3166 3167 3167 3167 3167 3167 3167 3168 3168 3168 3169 3170 3171 3171 3172 3173 3175 3177 3178 3179 3180 3181 3182 3183 3184 3185 3186 3187 3187 3188 3189 3190 3191 3192 3193 3194 3194 3195 3196 3196 3197 3197 3197 3198 3198 3198 3198
3146 3146 3147 3147 3148 3148 3148 3147 3146 3148 3151 3151 3150 3151 3151 3152 3154 3154 3153 3153 3155 3158 3161 3162 3163 3163 3163 3163 3163 3164 3164 3164 3164 3164 3164 3164 3165 3165 3165 3166 3167 3167 3166 3167 3167 3167 3167 3167 3168 3169 3170 3170 3171 3172 3173 3175 3176 3177 3178 3179 3180 3181 3183 3184 3185 3185 3185 3186 3187 3188 3190 3191 3192 3192 3193 3194 3194 3195 3195 3196 3196 3197 3197 3197 3197
3146 3146 3147 3147 3148 3148 3148 3147 3149 3150 3151 3152 3152 3152 3153 3153 3153 3153 3153 3154 3156 3158 3160 3161 3162 3162 3162 3162 3162 3162 3162 3162 3162 3162 3163 3163 3164 3165 3165 3165 3165 3166 3166 3166 3166 3167 3167 3167 3167 3168 3169 3170 3170 3171 3172 3173 3174 3175 3177 3178 3179 3180 3181 3182 3183 3184 3184 3185 3185 3186 3188 3189 3190 3191 3191 3192 3193 3193 3194 3194 3195 3195 3196 3196 3196
3146 3146 3146 3147 3148 3148 3148 3148 3150 3151 3152 3152 3152 3154 3155 3155 3155 3155 3155 3157 3159 3159 3159 3160 3160 3161 3161 3161 3161 3161 3161 3160 3160 3160 3161 3162 3163 3164 3164 3164 3164 3164 3165 3165 3166 3166 3166 3167 3167 3167 3168 3169 3170 3171 3171 3172 3173 3174 3175 3176 3177 3178 3179 3180 3181 3182 3183 3183 3184 3184 3185 3187 3188 3189 3190 3190 3191 3192 3192 3193 3193 3194 3194 3195 3195
3145 3146 3146 3146 3148 3148 3147 3149 3150 3152 3153 3152 3152 3153 3153 3155 3157 3157 3158 3159 3160 3160 3157 3157 3159 3160 3160 3160 3160 3159 3159 3158 3157 3158 3159 3161 3162 3163 3163 3163 3163 3163 3164 3164 3165 3165 3165 3166 3167 3167 3168 3168 3169 3170 3171 3171 3173 3173 3174 3175 3176 3177 3178 3179 3180 3181 3181 3182 3182 3182 3183 3184 3186 3187 3188 3189 3190 3190 3190 3191 3192 3192 3193 3193 3194
3145 3146 3146 3147 3148 3148 3147 3148 3150 3151 3152 3152 3153 3153 3151 3152 3156 3158 3158 3157 3157 3158 3155 3156 3158 3159 3159 3158 3158 3157 3156 3156 3155 3157 3159 3160 3161 3161 3161 3161 3162 3162 3162 3163 3163 3163 3164 3165 3166 3166 3167 3167 3168 3168 3169 3170 3171 3173 3173 3174 3175 3176 3177 3177 3178 3179 3180 3181 3181 3181 3182 3183 3184 3185 3186 3187 3188 3188 3189 3189 3190 3191 3192 3192 3193
3145 3146 3147 3148 3148 3149 3149 3149 3150 3151 3152 3151 3152 3155 3153 3152 3155 3157 3157 3155 3154 3155 3155 3156 3157 3157 3157 3156 3155 3155 3156 3156 3155 3157 3158 3159 3159 3158 3159 3160 3159 3159 3160 3160 3160 3161 3162 3163 3164 3165 3166 3166 3167 3168 3168 3169 3170 3171 3172 3173 3174 3175 3176 3177 3177 3178 3179 3179 3179 3180 3180 3181 3182 3183 3184 3185 3186 3186 3187 3188 3189 3190 3190 3191 3192
3144 3146 3147 3148 3149 3149 3149 3149 3150 3151 3152 3151 3150 3152 3154 3154 3155 3155 3154 3153 3153 3154 3155 3156 3156 3155 3155 3154 3154 3154 3155 3157 3157 3158 3158 3157 3157 3158 3159 3158 3157 3157 3158 3157 3158 3159 3159 3161 3163 3164 3165 3166 3166 3167 3168 3168 3169 3170 3171 3173 3173 3174 3175 3175 3176 3177 3177 3178 3178 3179 3179 3179 3180 3181 3182 3183 3184 3185 3186 3186 3187 3188 3189 3189 3190
3145 3146 3146 3147 3148 3148 3149 3149 3149 3150 3151 3151 3149 3149 3152 3153 3153 3152 3152 3153 3154 3154 3155 3156 3155 3153 3154 3154 3153 3153 3154 3157 3159 3159 3157 3156 3157 3158 3157 3157 3157 3157 3157 3158 3159 3160 3159 3160 3162 3163 3164 3165 3166 3166 3167 3168 3169 3170 3171 3172 3173 3174 3174 3174 3175 3176 3176 3177 3177 3177 3177 3178 3178 3179 3180 3181 3182 3183 3184 3185 3186 3186 3187 3187 3188
3146 3147 3145 3144 3146 3147 3149 3149 3149 3151 3151 3151 3151 3150 3150 3151 3152 3152 3153 3153 3154 3154 3154 3155 3154 3153 3154 3154 3152 3152 3154 3158 3160 3159 3156 3155 3156 3156 3155 3155 3155 3155 3156 3158 3159 3159 3158 3159 3161 3162 3163 3164 3165 3165 3166 3167 3168 3169 3170 3171 3172 3173 3173 3174 3175 3175 3176 3176 3176 3176 3176 3176 3176 3177 3178 3179 3180 3181 3182 3183 3184 3184 3185 3185 3186
3145 3146 3144 3142 3143 3146 3148 3148 3149 3150 3151 3151 3152 3152 3152 3152 3153 3153 3153 3153 3154 3154 3154 3155 3153 3152 3153 3153 3153 3153 3156 3159 3159 3157 3155 3155 3155 3155 3154 3155 3154 3153 3153 3155 3157 3158 3158 3157 3159 3161 3162 3164 3165 3165 3165 3166 3167 3168 3169 3170 3171 3172 3172 3173 3174 3174 3174 3174 3174 3175 3175 3175 3175 3176 3176 3177 3178 3179 3180 3181 3181 3182 3183 3184 3184
3143 3145 3144 3141 3141 3145 3147 3148 3148 3147 3149 3151 3152 3152 3153 3153 3154 3153 3153 3153 3154 3154 3154 3154 3153 3152 3152 3153 3153 3152 3155 3158 3156 3154 3154 3154 3154 3154 3154 3154 3153 3152 3152 3153 3154 3155 3155 3156 3157 3159 3161 3163 3164 3164 3165 3166 3167 3167 3168 3168 3169 3170 3171 3172 3172 3172 3173 3173 3173 3173 3173 3174 3175 3175 3176 3176 3176 3177 3178 3179 3179 3180 3181 3182 3183
3141 3143 3143 3142 3140 3144 3147 3147 3147 3146 3147 3150 3151 3152 3153 3153 3154 3153 3154 3154 3154 3154 3154 3154 3154 3153 3151 3152 3153 3152 3154 3155 3154 3153 3154 3153 3153 3154 3154 3153 3152 3152 3152 3153 3153 3153 3153 3155 3156 3158 3160 3162 3163 3163 3164 3165 3166 3167 3167 3167 3168 3168 3169 3170 3170 3170 3171 3171 3170 3170 3172 3173 3174 3174 3174 3174 3175 3175 3176 3177 3178 3178 3179 3180 3180
3140 3141 3143 3142 3140 3142 3145 3145 3145 3146 3147 3150 3151 3152 3153 3153 3154 3154 3154 3154 3154 3154 3154 3154 3154 3153 3152 3151 3151 3152 3154 3154 3153 3153 3153 3153 3153 3153 3153 3152 3152 3152 3152 3153 3153 3152 3153 3154 3156 3157 3159 3161 3162 3162 3163 3164 3165 3166 3166 3166 3167 3167 3167 3168 3168 3168 3168 3168 3169 3171 3172 3172 3172 3173 3173 3173 3173 3175 3176 3176 3177 3177 3177 3178 3178
3139 3140 3142 3142 3139 3141 3142 3141 3143 3146 3148 3150 3151 3152 3153 3153 3154 3154 3154 3154 3154 3154 3154 3154 3153 3153 3152 3151 3150 3151 3152 3153 3152 3152 3152 3153 3153 3153 3152 3152 3151 3151 3152 3152 3153 3153 3153 3154 3155 3157 3158 3160 3160 3161 3161 3163 3164 3164 3165 3165 3166 3166 3166 3167 3167 3167 3166 3168 3171 3172 3171 3171 3171 3172 3172 3171 3172 3173 3175 3175 3175 3175 3176 3176 3176
3138 3139 3141 3140 3138 3139 3140 3139 3141 3146 3148 3149 3151 3152 3152 3153 3153 3154 3154 3154 3155 3154 3154 3154 3153 3152 3151 3151 3150 3150 3152 3152 3151 3151 3151 3152 3153 3153 3152 3152 3151 3151 3151 3151 3152 3152 3153 3154 3155 3156 3158 3159 3159 3159 3160 3162 3162 3163 3163 3164 3165 3165 3165 3166 3166 3166 3166 3168 3170 3170 3170 3170 3170 3170 3171 3171 3171 3171 3172 3173 3173 3174 3174 3174 3175
3138 3139 3140 3138 3137 3139 3141 3141 3142 3145 3148 3149 3150 3152 3152 3153 3153 3154 3154 3154 3154 3154 3154 3154 3153 3152 3151 3150 3150 3150 3151 3151 3151 3151 3151 3151 3152 3152 3151 3151 3150 3150 3150 3150 3151 3152 3152 3153 3154 3156 3158 3158 3158 3159 3159 3161 3161 3162 3162 3163 3163 3164 3164 3164 3165 3165 3165 3167 3169 3169 3169 3169 3169 3170 3170 3170 3171 3171 3171 3171 3171 3172 3172 3173 3173
3137 3138 3138 3136 3137 3139 3142 3142 3143 3145 3148 3149 3150 3151 3152 3152 3153 3153 3154 3154 3154 3154 3154 3153 3153 3152 3151 3150 3150 3149 3149 3150 3150 3150 3150 3150 3151 3151 3151 3150 3150 3149 3149 3150 3151 3151 3151 3152 3153 3155 3157 3158 3158 3158 3159 3160 3160 3160 3161 3161 3162 3163 3163 3163 3164 3164 3164 3165 3167 3168 3168 3168 3168 3169 3169 3169 3169 3170 3170 3170 3170 3170 3170 3171 3172
3137 3138 3138 3136 3137 3140 3141 3142 3143 3145 3147 3149 3150 3151 3151 3152 3153 3153 3154 3154 3154 3153 3153 3153 3153 3152 3151 3150 3150 3149 3149 3149 3149 3149 3149 3149 3149 3150 3150 3150 3149 3149 3149 3149 3150 3151 3151 3152 3153 3154 3156 3157 3157 3158 3158 3159 3159 3159 3160 3160 3160 3161 3162 3162 3162 3163 3163 3164 3165 3166 3167 3167 3168 3168 3168 3169 3168 3168 3168 3169 3169 3169 3169 3169 3170
3137 3138 3138 3137 3137 3139 3139 3140 3143 3145 3146 3148 3149 3150 3151 3152 3152 3153 3153 3153 3153 3153 3153 3153 3152 3152 3152 3151 3150 3149 3149 3148 3148 3148 3148 3148 3148 3149 3149 3149 3149 3149 3149 3149 3150 3150 3151 3151 3152 3154 3155 3156 3157 3157 3157 3157 3158 3158 3159 3159 3159 3160 3160 3160 3161 3162 3162 3163 3164 3165 3166 3167 3167 3167 3167 3167 3167 3167 3167 3168 3167 3167 3167 3168 3168
3136 3137 3138 3138 3137 3138 3138 3139 3142 3144 3146 3148 3149 3150 3151 3151 3152 3152 3152 3152 3152 3152 3152 3152 3152 3152 3151 3151 3150 3150 3149 3148 3148 3147 3147 3147 3148 3148 3148 3149 3149 3148 3149 3149 3149 3149 3150 3151 3151 3153 3154 3156 3156 3156 3156 3156 3156 3157 3158 3158 3158 3158 3159 3159 3160 3161 3162 3162 3163 3164 3165 3165 3166 3166 3166 3166 3167 3167 3167 3167 3166 3166 3166 3166 3166
3135 3136 3137 3137 3137 3138 3139 3140 3142 3144 3145 3147 3148 3149 3150 3150 3151 3151 3151 3151 3151 3151 3151 3151 3151 3151 3151 3151 3150 3149 3149 3148 3148 3147 3147 3147 3147 3147 3147 3148 3148 3148 3148 3148 3149 3149 3150 3150 3150 3152 3153 3154 3155 3155 3155 3155 3156 3157 3157 3157 3157 3158 3158 3159 3159 3160 3161 3162 3162 3163 3164 3164 3165 3165 3166 3166 3166 3166 3166 3166 3165 3165 3165 3165 3165
3134 3135 3136 3137 3137 3138 3139 3140 3141 3143 3144 3146 3147 3148 3148 3149 3149 3150 3150 3150 3150 3150 3151 3151 3151 3151 3150 3150 3149 3149 3148 3148 3147 3147 3147 3146 3146 3146 3146 3146 3147 3147 3147 3148 3148 3148 3149 3149 3149 3150 3151 3152 3153 3154 3154 3154 3155 3156 3156 3156 3156 3157 3157 3158 3159 3159 3160 3161 3162 3162 3163 3163 3164 3164 3165 3165 3165 3165 3165 3165 3164 3164 3163 3163 3163
3133 3134 3135 3136 3136 3137 3138 3139 3140 3142 3143 3145 3146 3146 3147 3147 3148 3148 3149 3149 3149 3149 3150 3150 3150 3150 3149 3149 3149 3148 3148 3147 3146 3146 3146 3146 3145 3145 3145 3145 3145 3146 3146 3146 3146 3147 3147 3147 3147 3148 3149 3150 3151 3152 3152 3152 3153 3154 3155 3155 3156 3156 3156 3157 3158 3158 3159 3160 3161 3161 3162 3162 3163 3164 3164 3164 3164 3164 3164 3164 3163 3163 3163 3163 3162
3132 3133 3134 3135 3135 3136 3137 3138 3139 3140 3142 3143 3144 3145 3145 3146 3146 3147 3147 3148 3148 3149 3149 3149 3149 3149 3148 3148 3148 3147 3147 3146 3145 3145 3145 3144 3144 3144 3144 3144 3144 3144 3145 3145 3145 3145 3145 3145 3145 3146 3147 3149 3149 3150 3151 3151 3152 3153 3153 3154 3155 3155 3156 3156 3157 3157 3158 3159 3160 3160 3160 3161 3162 3162 3163 3163 3163 3163 3163 3163 3162 3162 3162 3162 3162
3131 3132 3133 3134 3135 3135 3136 3137 3138 3139 3140 3142 3143 3143 3144 3144 3145 3146 3147 3147 3147 3147 3148 3148 3148 3148 3148 3148 3147 3147 3146 3145 3144 3144 3144 3143 3143 3143 3143 3143 3143 3143 3144 3144 3144 3144 3144 3144 3144 3145 3146 3147 3148 3149 3150 3150 3151 3152 3153 3153 3154 3155 3155 3156 3156 3157 3158 3158 3159 3159 3160 3160 3161 3161 3161 3161 3161 3161 3161 3161 3161 3161 3161 3161 3160
3131 3132 3132 3133 3134 3134 3135 3136 3137 3138 3139 3140 3141 3142 3143 3143 3144 3145 3145 3145 3146 3146 3147 3147 3147 3147 3147 3147 3146 3146 3146 3144 3144 3143 3143 3142 3142 3142 3142 3142 3142 3142 3142 3143 3143 3143 3143 3143 3143 3144 3144 3145 3146 3147 3148 3149 3150 3151 3152 3152 3153 3154 3154 3155 3156 3157 3158 3158 3158 3159 3159 3160 3160 3160 3160 3160 3160 3160 3160 3160 3160 3160 3160 3160 3159
3130 3131 3132 3133 3133 3133 3134 3134 3135 3136 3137 3139 3140 3141 3142 3143 3144 3144 3144 3145 3145 3145 3146 3146 3146 3146 3146 3146 3145 3145 3145 3144 3143 3142 3142 3141 3141 3141 3141 3141 3141 3141 3141 3141 3142 3142 3142 3142 3143 3143 3143 3144 3145 3146 3147 3148 3149 3150 3151 3152 3152 3153 3154 3155 3155 3156 3157 3157 3158 3158 3159 3159 3159 3159 3159 3159 3159 3159 3159 3159 3159 3159 3159 3159 3158
Wind_Speed
7 9 12 13 13 12 12 12 12 12 12 11 10 10 10 10 10 10 10 10 9 9 9 8 8 8 8 8 8 7 7 6 6 5 4 3 4 7 11 15 18 20 19 18 17 18 18 17 16 15 15 15 16 16 15 15 14 15 16 17 17 17 17 18 20 21 22 23 24 25 25 26 26 27 27 27 28 29 29 29 28 25 23 22 22
7 8 12 13 13 12 12 12 12 12 12 12 11 10 10 10 10 10 11 10 9 9 9 9 8 8 7 7 6 6 6 6 6 5 4 3 3 5 10 14 17 20 20 18 17 18 18 18 17 16 15 16 16 16 15 14 14 15 16 17 17 16 17 17 19 21 22 23 24 25 26 26 27 27 27 28 28 28 29 29 30 29 25 24 24
9 8 11 13 13 12 12 12 12 13 13 13 12 11 11 11 11 11 11 10 9 9 9 9 9 8 7 6 6 5 5 6 6 6 5 3 3 4 8 13 17 20 20 18 18 18 18 18 18 18 17 16 16 16 15 14 13 14 15 16 16 16 16 17 19 20 21 22 23 24 25 26 27 27 28 28 28 28 28 29 30 30 29 27 25
9 10 11 13 13 11 12 12 13 13 14 13 13 12 12 12 11 11 11 10 9 9 10 9 9 8 7 6 5 5 5 5 5 5 5 4 4 4 6 11 16 19 21 20 18 18 18 18 18 18 18 17 17 16 15 14 13 14 14 15 14 15 15 16 17 19 20 21 22 24 25 25 26 26 27 27 27 28 28 28 29 29 30 30 27
7 9 10 11 11 11 12 12 13 14 14 14 14 13 13 12 12 11 11 10 10 10 10 10 9 8 7 6 5 4 4 4 4 5 5 5 4 4 5 9 14 18 22 21 19 18 18 18 18 18 19 18 17 16 15 14 13 13 14 14 13 13 14 15 16 17 19 20 21 23 24 24 24 25 26 27 27 27 27 28 28 29 29 30 30
5 7 9 10 10 10 12 13 13 14 15 15 14 14 13 13 12 12 12 11 10 10 10 10 9 8 6 6 5 4 4 4 4 4 4 4 5 5 5 8 13 18 21 21 20 19 18 18 18 18 19 19 18 16 15 14 13 13 14 13 12 12 13 13 14 16 17 18 20 21 22 22 23 24 25 26 26 26 26 27 27 28 28 29 30
5 6 8 9 10 11 12 13 14 14 15 15 15 14 13 13 13 12 12 12 11 11 10 10 8 7 7 6 5 5 4 4 3 3 4 4 5 6 6 7 12 16 20 22 21 20 19 19 19 19 19 19 19 17 16 14 14 13 13 12 12 11 12 13 13 14 15 17 18 19 20 20 21 22 23 24 25 25 26 26 27 27 28 28 29
6 6 8 9 10 11 12 13 14 14 15 15 15 14 13 13 13 13 13 12 11 11 10 9 8 7 7 6 5 5 4 4 3 3 4 5 5 6 6 7 11 15 19 21 21 20 20 20 19 20 20 20 19 18 16 15 14 13 12 12 11 11 11 12 13 13 13 15 16 17 17 18 19 20 21 22 23 24 25 25 26 26 27 28 28
5 5 6 7 9 10 11 12 13 14 14 14 15 14 14 13 13 14 14 13 12 11 10 9 8 7 6 6 5 5 4 4 4 4 4 4 4 5 5 6 10 14 17 20 21 21 20 20 20 21 21 20 20 19 17 15 14 13 12 11 10 10 11 12 13 12 12 13 14 15 15 16 17 18 19 20 21 23 23 24 25 25 26 26 27
4 4 5 7 9 10 11 12 13 13 14 14 15 14 13 13 14 14 14 12 11 11 10 9 8 7 6 6 5 5 4 5 4 4 4 3 3 4 4 4 8 12 16 19 21 22 21 21 21 21 21 21 20 20 18 17 15 14 13 11 10 10 10 11 12 12 12 13 13 13 14 14 15 15 17 18 20 21 22 23 23 23 24 25 26
4 4 6 7 9 11 12 13 13 14 14 14 14 13 13 14 14 14 13 12 11 11 10 9 8 7 6 6 5 4 4 4 4 4 4 3 2 3 3 3 5 9 15 19 21 22 22 22 22 22 21 21 21 21 19 18 16 15 14 12 11 10 10 10 11 12 12 12 12 13 13 13 13 13 14 16 18 19 20 21 22 22 23 23 24
5 6 7 8 10 11 13 14 14 14 14 14 13 13 14 15 15 15 14 13 12 11 11 10 8 7 7 6 5 4 4 4 4 4 4 3 2 2 3 3 4 8 13 17 20 22 23 23 22 22 22 22 22 21 20 19 17 16 15 13 12 11 10 9 10 11 12 11 11 11 12 12 13 12 12 14 15 17 18 19 20 20 21 22 22
6 7 8 9 11 12 13 14 14 14 14 13 13 14 15 15 15 16 15 14 13 12 11 9 8 7 6 5 4 4 3 3 4 4 4 4 4 3 3 5 5 6 10 15 19 22 23 23 23 23 23 23 23 22 21 20 19 18 16 14 13 12 11 10 9 9 10 10 9 9 10 10 11 12 11 12 13 14 16 17 18 18 19 20 21
7 8 9 10 12 12 12 13 14 15 14 14 14 15 16 16 16 16 15 14 14 12 11 9 8 7 6 5 4 3 3 3 3 4 4 4 4 4 4 5 4 4 7 12 17 20 23 23 23 23 23 23 23 24 22 21 21 19 18 16 15 13 12 11 9 9 9 9 8 7 7 8 9 10 10 10 11 12 13 14 15 16 17 18 19
8 9 9 10 11 10 11 13 14 15 15 16 17 17 16 17 17 16 15 14 14 12 10 9 8 7 6 5 4 3 3 3 3 4 4 4 4 4 4 4 4 4 5 8 13 18 21 23 24 23 23 23 23 24 24 23 22 21 20 18 17 15 13 12 10 9 8 8 8 7 6 5 6 7 8 8 9 10 11 12 13 14 15 16 16
8 9 9 9 9 9 11 12 14 15 15 16 17 18 18 17 17 16 14 13 13 11 10 9 8 7 6 5 4 3 3 3 4 4 4 4 3 3 3 3 3 4 4 5 9 14 18 21 23 23 23 23 23 23 24 24 23 22 21 20 19 17 16 14 11 10 9 8 8 7 6 4 4 4 5 6 7 8 8 10 11 11 12 13 14
8 9 10 9 8 9 11 12 14 15 15 16 17 18 19 18 17 15 13 12 11 10 9 8 8 7 6 5 4 4 3 3 3 3 4 4 4 4 4 3 4 3 4 4 5 10 14 17 20 23 23 23 22 22 23 24 24 23 22 21 20 19 18 16 14 12 11 10 9 8 7 6 4 3 2 2 4 5 6 7 8 9 10 10 11
8 10 11 9 8 8 10 12 14 13 13 14 16 17 17 17 17 16 15 13 11 9 8 8 8 7 6 5 5 4 4 3 3 3 4 4 5 5 5 5 4 4 4 5 5 6 10 14 17 20 22 23 22 21 21 22 24 24 23 22 21 20 19 18 16 15 14 12 11 10 9 7 7 6 4 2 0 2 4 5 6 7 7 8 9
9 9 9 9 10 10 10 12 13 12 12 13 15 16 16 15 16 17 16 14 12 10 8 8 8 7 6 6 5 4 3 2 3 3 3 3 4 4 5 5 5 4 4 4 5 5 7 11 15 18 20 22 22 22 21 21 22 23 24 23 22 21 20 19 18 17 16 15 14 13 11 10 9 8 7 5 3 2 2 3 4 4 5 5 6
9 8 8 9 9 10 10 11 11 11 11 12 15 16 17 17 17 18 16 14 13 11 10 9 8 7 6 6 4 3 2 2 3 3 3 3 3 4 4 4 4 4 4 4 5 6 6 8 12 15 18 20 21 22 22 21 21 22 23 23 23 22 21 19 18 18 18 18 17 16 14 13 12 11 10 9 7 6 4 3 3 3 3 3 3
8 8 8 8 8 8 9 10 10 9 11 14 17 18 19 19 19 18 16 14 13 12 10 9 8 7 6 5 4 3 3 2 2 2 3 3 4 4 4 4 4 4 3 4 4 6 7 7 9 12 16 18 20 21 22 22 22 22 22 22 22 22 22 20 19 18 19 20 20 18 17 16 14 13 12 12 10 9 7 6 4 3 3 2 1
8 9 9 9 9 9 9 11 11 11 13 14 16 18 18 18 18 17 16 15 14 12 10 10 8 7 6 5 4 3 3 3 2 3 3 3 4 5 4 4 3 3 3 3 3 4 7 9 9 10 14 17 19 20 21 22 22 22 21 21 21 22 22 22 20 19 19 20 21 20 19 18 16 15 14 14 13 12 10 8 7 5 4 3 3
9 10 10 10 10 11 12 13 14 14 13 11 12 16 17 17 17 16 17 17 15 12 11 10 8 7 6 5 5 4 4 3 3 4 4 4 5 6 5 5 4 3 3 3 2 3 5 9 11 11 12 15 17 19 20 21 21 21 21 21 21 21 21 21 20 20 20 21 21 20 20 19 17 16 15 15 14 14 12 11 9 7 6 5 5
10 10 10 10 10 12 13 14 14 12 11 10 10 12 14 14 15 16 16 16 15 13 11 9 8 6 6 5 5 5 5 5 4 4 4 5 6 6 6 6 5 4 4 3 3 3 4 7 11 12 12 14 15 17 19 19 19 21 21 20 20 19 20 20 19 19 19 20 20 20 20 19 19 18 17 16 15 15 14 13 11 9 8 7 7
10 11 10 9 10 12 12 14 13 9 8 10 12 11 12 12 13 13 13 13 14 12 10 8 7 6 6 5 5 6 6 6 6 6 6 6 6 7 7 6 5 5 5 4 4 3 3 3 8 11 12 13 14 15 15 16 18 20 19 19 18 18 19 19 18 18 18 19 20 20 19 19 19 19 18 17 16 15 15 14 12 11 10 9 9
11 10 10 9 10 11 13 14 12 9 9 10 13 13 12 12 12 12 10 11 13 10 8 7 6 5 5 5 6 7 8 8 8 8 7 6 6 7 7 7 6 6 5 5 5 4 3 2 4 7 10 12 13 14 14 14 16 18 19 18 19 19 18 18 18 18 18 19 20 19 19 18 18 19 18 18 17 16 15 14 14 13 12 11 11
10 10 10 10 10 12 13 12 11 11 10 10 11 11 12 13 13 12 10 9 9 9 8 6 5 5 5 6 7 8 9 10 10 9 8 6 7 7 7 8 8 7 6 6 5 4 4 3 3 4 6 9 11 12 13 13 13 15 17 18 18 18 18 19 19 18 18 19 20 20 19 19 18 18 18 18 18 17 16 15 15 14 13 13 12
11 10 10 9 9 11 12 10 10 11 11 10 9 8 11 14 13 11 10 8 9 9 7 4 5 5 6 8 9 10 11 13 13 10 8 7 8 8 8 8 9 8 6 5 4 4 4 3 3 3 4 5 8 10 11 11 11 13 14 16 17 18 18 19 19 19 19 19 19 20 20 19 18 18 18 18 18 18 17 15 15 15 15 14 14
12 11 10 8 9 10 10 9 10 11 10 10 10 8 8 9 10 7 8 9 8 8 5 3 6 7 8 10 11 13 14 15 13 9 7 8 10 10 9 9 10 8 7 6 5 5 4 2 2 3 3 4 4 5 6 7 8 10 11 13 14 15 16 18 18 17 18 18 17 18 19 19 19 18 18 18 18 18 17 16 16 16 15 15 15
13 11 10 8 9 11 11 10 11 10 9 10 10 10 5 3 5 6 8 7 4 3 3 4 7 8 11 13 13 14 15 15 13 10 7 8 11 12 10 10 11 11 10 9 9 8 7 5 3 2 3 3 2 1 1 2 4 7 9 11 12 13 13 15 16 16 16 17 17 17 18 19 18 17 17 18 18 19 18 17 16 16 16 16 16
15 14 13 11 12 13 13 12 11 10 9 7 6 7 7 5 5 5 4 2 2 3 5 6 8 11 13 13 14 14 14 13 11 10 8 9 12 12 10 11 13 14 12 11 10 9 8 6 4 3 2 2 1 1 2 2 3 6 7 9 10 10 10 12 14 15 15 15 16 17 17 17 17 17 16 16 17 18 18 18 17 17 17 17 17
14 15 17 16 15 14 13 12 11 11 9 6 3 2 4 3 1 1 2 4 4 5 6 6 9 13 12 13 14 13 13 11 8 8 8 10 11 9 10 11 13 13 11 9 8 6 6 7 5 3 2 1 0 1 1 2 4 5 5 6 7 8 8 9 11 12 13 13 14 15 15 15 16 17 16 16 16 16 17 18 18 18 18 18 18
12 14 19 20 18 14 13 12 12 12 10 6 4 1 1 2 3 3 3 4 5 6 6 6 10 12 11 13 16 14 12 10 7 8 10 11 11 10 11 11 12 13 10 8 8 7 7 7 5 3 3 2 1 1 2 3 4 5 5 5 5 6 6 7 8 9 10 11 12 14 13 12 14 16 15 15 16 16 16 17 18 18 19 19 19
12 16 19 21 20 15 14 13 12 12 10 7 5 4 2 1 2 3 3 4 5 6 5 5 9 11 11 13 16 16 12 8 7 9 10 11 12 12 11 11 12 11 8 7 6 6 6 6 4 4 3 2 2 2 2 3 4 4 5 5 6 6 6 6 7 7 8 11 12 13 13 13 14 14 14 15 15 15 16 16 17 17 18 19 19
15 18 19 21 21 16 15 13 10 9 10 8 6 5 3 2 1 2 3 4 5 6 6 6 8 11 13 12 13 15 11 6 7 10 11 11 11 12 12 11 11 9 7 10 7 4 3 3 4 4 3 3 3 3 3 3 3 4 4 5 6 7 6 6 7 7 8 9 11 14 15 15 15 14 13 13 14 14 15 16 17 18 18 18 18
17 19 20 21 20 17 15 13 10 8 9 9 7 6 4 3 1 1 3 4 5 6 7 7 7 10 14 13 12 14 12 9 10 11 10 10 10 11 12 10 10 9 8 10 9 5 3 3 3 3 3 4 4 4 5 4 4 4 5 6 7 7 7 8 9 9 9 11 13 13 12 12 12 12 12 13 14 14 15 17 17 18 18 18 18
19 21 21 20 19 17 15 14 12 10 10 9 8 7 5 4 2 2 3 4 6 7 8 7 7 7 10 12 12 12 12 12 12 10 9 9 9 11 12 10 9 10 8 9 9 5 4 4 3 3 3 4 5 6 6 5 5 6 7 7 7 8 8 9 10 10 12 14 12 8 6 7 9 10 11 13 14 13 15 18 18 18 18 18 18
20 21 21 18 18 18 17 17 14 11 11 11 9 8 7 5 4 4 4 6 7 8 9 9 9 8 7 8 9 10 10 12 13 11 9 9 9 11 11 9 8 9 9 9 9 5 5 4 3 3 3 3 5 7 7 6 6 7 8 8 8 8 8 9 10 11 12 11 8 6 7 8 8 9 10 12 12 11 13 16 17 16 17 18 18
20 20 18 16 17 17 18 18 16 12 12 12 10 9 8 6 5 4 5 6 7 8 9 11 12 12 11 10 9 7 6 8 12 12 11 10 9 9 11 10 10 10 10 9 8 7 7 6 4 4 3 4 5 7 7 6 7 8 9 9 9 9 9 10 10 11 11 9 7 8 9 9 8 9 10 10 11 10 11 13 14 14 15 17 18
19 19 17 15 17 16 15 14 15 13 13 12 11 10 8 7 5 4 4 5 6 8 10 12 13 14 15 14 12 10 7 5 10 13 13 12 10 10 12 12 13 12 11 10 9 9 9 7 6 5 5 5 6 7 7 7 8 9 9 10 10 9 10 10 11 11 11 9 8 8 9 9 9 10 10 11 11 11 12 13 13 14 14 15 16
20 19 17 15 16 16 12 11 13 13 13 13 12 11 8 7 5 3 2 3 5 7 10 11 13 14 15 15 15 13 10 6 6 10 13 14 12 12 12 13 14 13 11 10 9 10 10 9 8 7 7 7 7 7 8 8 9 10 11 11 11 10 11 10 10 10 10 8 7 7 8 8 9 9 9 10 10 11 12 13 14 15 16 15 15
19 18 17 15 15 15 15 14 14 14 14 14 12 11 9 8 5 3 1 2 4 7 10 11 12 13 14 15 15 14 12 9 6 6 10 13 13 12 12 13 13 13 11 11 10 11 11 10 10 9 8 9 9 8 9 10 10 10 11 12 11 11 11 10 9 9 10 8 7 7 7 8 8 8 8 9 9 9 10 11 13 14 16 17 17
19 19 18 17 15 13 12 14 15 14 14 13 12 11 10 8 5 3 1 2 4 6 9 11 12 12 13 14 15 15 13 11 8 6 7 11 12 12 12 12 13 13 12 12 12 12 13 12 12 10 10 10 10 9 11 12 11 11 12 12 12 12 11 11 10 10 10 9 8 7 7 7 8 8 8 9 9 9 8 9 10 12 14 16 18
20 20 19 16 14 11 9 11 14 14 14 13 12 11 9 7 6 3 2 2 4 6 8 10 12 12 12 13 15 15 14 12 10 7 5 7 10 12 14 15 16 15 13 13 13 13 13 13 12 11 11 11 10 11 12 14 14 14 13 13 12 12 12 12 11 10 10 10 9 9 8 8 9 8 8 8 8 9 9 9 9 10 11 13 16
21 21 18 13 13 12 11 12 14 14 14 13 12 11 10 8 6 4 4 4 5 6 8 10 11 12 12 13 14 16 15 14 12 9 7 6 7 9 11 14 16 17 16 15 14 13 13 13 13 13 12 11 11 12 13 14 15 15 15 14 12 12 12 11 10 11 11 11 10 10 10 9 8 8 7 8 8 8 9 9 10 10 11 12 13
22 21 17 13 12 12 12 14 17 16 15 14 13 12 11 10 7 6 5 5 6 7 8 10 12 13 13 13 15 16 16 16 14 11 9 7 6 6 8 10 12 14 16 16 16 15 14 14 15 14 14 13 12 13 14 16 16 16 16 15 13 12 12 10 10 12 12 12 12 12 10 9 9 8 7 7 7 8 8 9 10 10 11 11 12
22 21 18 14 13 13 13 16 19 18 17 15 14 13 12 10 8 7 6 6 7 8 9 11 12 13 14 14 15 15 16 16 15 13 10 8 6 5 6 7 8 10 12 14 15 14 15 15 16 16 15 14 13 14 14 16 17 16 15 15 13 12 11 10 11 12 12 13 13 12 11 10 9 9 8 8 8 8 9 9 10 10 11 11 11
21 21 20 15 13 14 15 18 20 20 19 17 15 14 13 11 10 8 7 7 8 10 10 12 13 14 15 16 16 15 15 16 15 13 11 9 6 4 4 5 6 7 9 10 11 12 13 14 14 14 14 14 14 14 14 16 16 15 13 11 10 10 10 10 10 11 12 12 12 12 12 11 10 10 9 10 9 9 9 9 9 10 11 12 12
21 22 21 17 15 16 17 19 21 21 20 19 18 16 14 13 11 8 8 8 9 10 11 13 14 15 16 17 18 16 15 15 15 13 11 9 6 4 4 4 5 6 7 8 9 10 11 11 11 12 12 13 14 15 15 14 14 13 11 10 9 9 10 10 10 11 10 10 10 11 11 10 9 10 10 10 10 9 9 8 8 9 11 11 12
21 22 23 20 18 18 19 20 22 22 22 22 20 17 15 13 11 8 9 9 10 11 12 13 15 16 17 18 19 18 16 15 15 14 11 9 6 4 3 3 4 5 6 7 8 8 9 8 8 8 9 10 11 12 13 13 12 11 10 9 9 8 8 8 8 9 8 8 9 10 10 8 8 9 9 9 9 8 8 7 8 8 9 10 11
21 22 24 23 21 19 20 21 23 24 24 24 21 18 16 14 11 10 11 11 12 12 13 14 16 17 18 19 19 19 17 15 14 13 11 8 6 3 3 3 4 5 6 6 7 7 7 6 6 6 7 7 8 9 10 11 10 9 9 9 8 8 7 6 7 7 7 8 9 9 9 8 7 7 7 7 7 7 7 6 6 6 6 7 8
Wind_Direction
217 212 208 212 217 219 220 218 213 210 206 199 190 184 175 165 156 151 147 144 139 133 127 125 119 109 98 85 78 76 75 78 83 83 89 113 145 162 168 173 175 176 176 175 169 162 159 157 153 148 144 139 134 129 122 118 113 107 103 99 95 91 87 85 84 81 78 76 75 73 72 70 69 68 66 63 61 58 56 55 55 56 57 58 58
202 217 217 216 220 221 221 218 216 212 208 202 194 188 179 170 161 156 153 150 143 136 131 129 125 115 107 95 88 84 83 87 92 92 93 113 143 167 172 175 177 179 179 179 174 166 163 161 156 151 148 144 138 132 126 123 118 112 107 103 98 93 89 86 85 82 80 78 76 75 73 72 71 70 68 65 62 59 56 54 53 53 55 58 58
185 198 216 219 222 222 223 221 219 215 212 206 199 191 183 175 168 163 158 153 146 141 137 134 131 124 117 109 101 90 86 88 94 100 103 118 143 168 175 176 179 181 181 181 177 171 168 165 160 154 152 149 142 136 131 129 123 116 112 107 102 96 90 87 85 83 81 79 77 76 74 73 72 71 69 67 64 61 58 55 53 51 53 55 57
177 182 205 217 222 224 226 226 224 219 216 212 204 195 187 179 173 168 161 156 152 148 144 141 138 133 127 119 109 94 83 80 86 96 105 119 142 160 172 179 180 182 183 183 180 176 171 169 165 158 155 153 147 141 138 135 129 122 116 112 107 100 94 88 85 84 82 79 78 77 74 72 71 71 70 69 66 64 60 58 55 53 52 54 56
173 178 196 211 221 226 230 232 229 223 220 217 209 200 192 183 177 172 166 161 158 156 152 150 145 139 132 125 116 100 81 72 70 76 98 115 133 148 159 179 182 183 186 187 184 179 175 172 168 163 159 157 153 147 145 142 135 129 122 118 111 104 98 91 86 85 83 82 80 76 73 71 70 70 70 69 67 65 62 60 58 56 53 53 56
169 180 193 206 217 226 233 237 233 228 224 219 213 204 196 188 182 175 171 168 165 163 159 157 152 144 139 136 124 104 84 71 62 59 78 104 122 141 152 173 182 186 189 190 188 183 179 175 172 169 164 161 158 153 152 149 141 136 130 125 117 108 102 96 91 87 86 84 81 77 74 71 70 69 69 69 68 66 64 62 60 58 56 54 55
170 186 196 204 215 228 235 238 236 231 226 220 215 207 199 191 186 180 175 173 172 168 164 161 157 152 149 145 128 108 93 79 68 56 50 72 102 125 144 166 182 187 191 193 192 188 182 179 176 174 170 166 164 160 159 156 149 144 139 132 123 114 105 101 96 91 88 86 81 78 75 72 70 70 69 69 68 67 65 63 61 59 58 57 55
174 186 203 213 224 235 241 242 240 235 228 220 216 209 202 195 189 183 179 177 175 171 167 165 164 160 156 148 132 122 112 96 73 59 43 43 73 106 131 158 180 187 193 196 196 193 187 183 181 179 176 172 170 166 165 163 158 154 149 140 131 120 111 105 99 96 94 89 84 82 79 75 72 70 70 69 69 68 66 64 62 60 58 58 57
180 196 217 234 240 244 246 245 243 237 229 221 217 212 204 197 193 187 181 179 177 174 171 170 170 164 158 151 143 138 124 100 74 58 49 40 60 95 114 146 174 187 194 198 199 197 192 188 185 184 181 178 176 173 172 171 167 163 159 151 141 130 120 112 104 100 98 94 90 86 82 78 74 71 70 69 69 68 67 65 62 60 59 58 58
191 220 237 247 248 247 244 243 241 236 230 223 218 213 204 198 195 191 184 181 179 176 173 174 174 164 160 160 153 139 116 95 80 69 68 55 64 95 105 135 169 184 193 199 201 201 198 193 189 189 186 182 183 181 178 177 175 171 170 163 153 143 131 123 114 106 101 99 97 92 87 83 77 73 72 70 69 68 68 67 64 61 60 58 58
205 226 239 244 244 244 242 242 239 233 229 223 218 212 203 198 196 191 187 183 181 178 177 178 176 167 165 167 157 135 115 103 96 91 94 93 77 107 129 134 170 186 193 199 202 203 202 199 194 192 191 187 187 188 184 182 182 180 179 175 167 157 145 137 128 118 108 105 102 97 93 88 81 75 72 72 70 68 68 68 66 64 62 60 58
203 217 229 239 243 245 244 241 237 232 228 223 218 210 202 199 196 191 187 184 184 181 179 179 175 169 169 172 162 144 124 110 108 107 110 119 112 134 151 164 199 191 192 199 203 205 204 203 199 194 194 193 190 192 190 187 188 188 187 186 180 172 160 152 144 132 121 114 108 102 96 90 85 78 73 72 72 70 69 68 68 66 64 62 60
204 216 223 232 241 243 242 242 239 235 230 227 220 211 204 200 196 190 186 184 183 180 177 175 173 172 175 178 170 147 126 114 111 113 115 118 128 163 178 193 209 193 193 200 202 206 207 206 203 198 197 198 195 193 195 193 194 195 194 196 192 186 177 167 160 149 138 130 120 111 102 94 89 83 75 70 71 72 70 69 69 68 67 64 62
209 219 224 230 239 241 242 244 241 238 234 230 222 213 205 198 195 191 186 183 180 175 171 170 172 175 180 185 176 148 131 129 119 113 114 119 140 174 190 197 204 189 195 200 202 204 207 208 206 202 199 201 201 196 196 198 199 199 200 203 202 198 192 185 178 167 157 150 140 130 118 105 95 88 80 72 67 69 70 70 69 69 69 67 65
207 221 229 231 237 240 246 250 246 242 237 232 222 212 205 198 193 190 187 183 177 171 168 168 173 177 183 189 180 160 152 141 125 117 117 127 148 175 187 190 189 184 189 200 203 203 205 209 208 206 202 202 205 202 199 201 202 203 206 207 208 207 205 202 196 189 179 170 164 157 144 129 111 96 86 76 67 62 66 68 68 68 68 69 67
203 217 225 228 233 238 244 251 249 242 241 240 228 212 204 198 191 189 186 181 175 168 167 169 174 179 186 194 189 178 166 145 127 125 128 134 147 167 181 184 186 183 176 189 205 205 204 207 208 207 205 204 207 206 203 204 205 207 210 211 212 213 213 214 212 208 203 193 186 183 179 169 150 122 96 80 69 59 58 63 67 68 67 68 69
200 209 217 222 227 236 239 243 244 243 246 245 234 217 205 196 187 184 180 178 174 166 168 173 177 185 191 198 200 187 167 146 133 136 140 142 157 174 183 191 196 191 177 176 195 207 205 205 208 208 207 205 207 209 207 207 208 211 213 214 216 217 218 220 223 223 220 216 210 207 205 202 201 188 152 95 71 59 52 54 61 66 67 66 67
195 207 215 216 219 232 234 233 234 239 244 238 229 218 207 197 185 178 173 173 172 166 172 178 183 192 200 204 203 187 162 148 142 151 154 159 177 185 189 195 207 209 191 183 184 200 205 204 205 207 208 207 206 208 209 210 211 213 216 218 219 221 222 224 228 231 231 231 228 225 223 222 224 223 221 215 23 40 41 40 48 58 65 65 64
191 204 214 213 214 222 220 223 228 233 236 227 219 210 199 193 186 176 170 172 171 168 174 184 193 198 207 208 200 181 163 160 162 171 175 187 198 197 201 204 214 220 209 199 194 194 201 202 204 206 208 209 208 207 207 210 213 215 218 220 223 224 226 227 229 232 235 238 238 236 233 232 233 234 237 239 253 286 338 6 24 36 55 65 64
190 196 206 214 219 222 213 216 226 226 223 215 208 199 187 183 186 180 171 171 170 169 176 189 196 201 208 204 193 179 175 186 186 190 197 215 225 223 225 226 228 232 229 222 212 207 207 203 204 206 207 209 210 209 207 208 212 216 219 222 225 227 228 230 231 232 235 239 242 243 242 239 238 238 240 243 250 262 281 306 337 355 18 47 64
191 189 200 209 218 227 213 214 223 214 205 202 198 190 183 182 186 181 170 170 171 170 178 189 195 202 206 196 188 184 196 209 201 210 229 241 249 247 244 244 243 246 245 241 235 222 219 215 208 207 209 210 211 210 209 208 211 215 219 221 224 228 229 230 231 233 235 237 240 244 246 246 243 242 242 244 248 254 265 278 295 312 321 331 17
193 189 195 198 205 214 210 214 214 205 203 202 195 190 188 185 185 182 173 173 173 171 176 186 196 201 197 189 193 202 211 215 208 226 242 252 260 262 257 256 255 257 265 267 260 240 229 225 218 212 211 213 213 211 210 209 210 215 219 221 224 227 229 230 231 234 236 236 237 240 244 247 247 246 245 244 246 250 257 266 275 285 287 287 287
193 194 195 194 199 202 205 215 212 204 201 199 196 193 189 182 182 185 182 177 170 171 178 187 195 196 194 193 203 218 226 227 227 233 243 251 257 265 264 261 261 262 270 279 284 268 243 231 226 220 214 214 215 213 212 210 210 213 218 221 224 226 228 230 231 233 237 238 237 237 239 243 247 248 248 246 246 248 252 257 263 268 268 267 267
191 196 196 193 200 200 202 215 219 206 187 191 203 195 187 180 180 184 185 176 166 172 180 187 194 195 202 205 215 232 240 243 247 255 256 257 257 261 261 258 258 256 259 265 276 284 264 238 229 226 221 219 218 215 213 210 210 213 216 219 222 225 227 229 231 233 238 240 239 238 237 239 243 247 249 249 247 247 249 252 254 256 256 254 253
192 197 194 195 204 203 204 213 218 208 183 196 207 199 188 183 179 180 187 177 165 173 184 187 194 200 211 219 230 239 247 250 254 262 260 263 266 264 265 264 264 259 256 261 268 282 286 249 231 227 224 223 222 220 215 210 210 212 214 218 220 223 226 229 230 232 236 239 240 240 239 238 239 242 246 250 249 247 248 249 248 247 247 246 244
192 193 192 198 202 204 211 213 212 203 194 201 205 200 189 184 180 178 194 189 169 173 184 189 201 211 223 232 242 247 252 254 251 255 257 262 266 269 271 269 267 263 260 264 272 285 290 280 243 233 229 228 226 224 221 214 212 211 211 216 221 222 225 229 231 232 235 238 240 241 240 239 238 240 242 246 249 249 248 248 246 244 243 241 240
192 190 194 199 199 205 215 213 209 200 193 202 208 198 183 184 186 179 189 199 184 180 183 192 214 228 243 248 253 256 256 254 250 249 251 255 261 265 266 264 263 263 264 269 276 279 270 268 267 256 248 242 238 235 233 227 218 213 209 212 218 220 223 227 229 232 235 236 238 240 240 241 239 239 241 243 247 249 249 246 245 245 243 239 238
189 190 195 198 197 206 214 207 202 197 191 203 212 202 188 185 184 179 180 191 197 195 184 192 230 247 259 259 260 260 256 253 247 242 247 255 256 256 255 256 259 260 262 261 258 247 241 252 262 274 286 272 256 248 246 243 228 217 213 212 215 217 221 225 227 230 234 236 238 239 240 242 242 240 241 242 244 247 248 246 244 245 243 240 239
186 190 193 196 197 202 208 197 193 190 188 203 205 199 203 187 175 179 186 190 199 203 188 206 242 254 260 261 260 258 257 259 254 246 249 256 254 250 247 250 252 252 248 238 225 214 211 202 225 255 278 294 283 256 249 249 226 209 211 213 212 216 221 225 228 230 233 236 238 240 241 242 244 244 242 242 243 245 247 247 244 244 244 243 241
181 185 190 196 191 187 189 187 192 190 188 208 204 182 178 190 186 195 201 198 206 230 247 244 252 260 259 258 257 257 260 262 263 267 269 261 252 244 240 242 243 238 226 218 211 199 187 176 177 196 230 260 292 305 255 231 199 190 198 204 207 215 220 223 227 229 232 235 237 242 243 242 245 247 246 244 243 245 246 247 246 244 244 244 244
183 184 184 190 183 177 182 186 194 192 182 200 211 174 159 178 196 201 217 248 291 273 269 263 266 261 257 261 264 267 269 266 273 292 295 271 257 250 251 250 245 238 220 210 210 196 172 161 164 160 178 225 268 29 72 113 157 176 191 198 203 213 219 220 222 226 230 234 237 242 245 244 245 248 249 247 246 246 247 249 250 248 246 245 244
200 190 177 179 178 176 182 185 190 185 169 165 191 197 164 160 154 330 297 306 304 283 280 280 272 265 268 277 275 273 273 276 292 303 291 278 274 272 267 259 253 249 231 214 208 191 165 152 157 168 166 165 135 93 111 120 135 156 179 192 199 207 215 217 219 225 229 233 237 241 243 243 245 247 246 248 247 247 248 249 250 250 248 245 244
216 199 176 172 175 176 178 182 187 177 156 147 147 113 55 49 359 319 305 311 313 306 299 290 277 275 282 284 283 281 278 294 316 298 282 279 279 272 263 259 251 246 239 220 196 187 176 158 161 183 182 177 162 159 160 147 145 148 156 167 181 199 208 211 215 220 228 232 235 238 240 241 244 246 246 245 244 243 244 245 248 250 250 248 246
216 205 180 170 172 175 173 177 189 173 145 138 135 123 110 79 301 296 320 335 333 326 321 307 286 280 279 281 288 292 293 313 314 287 278 275 270 264 262 260 250 242 249 249 217 192 176 158 174 200 191 197 190 192 190 165 165 159 156 164 173 187 191 196 206 209 220 228 230 234 235 234 236 239 243 245 245 242 241 242 243 245 247 248 247
207 201 185 172 170 173 170 170 182 164 137 136 138 141 154 173 225 291 342 347 339 334 331 319 297 286 284 283 285 289 300 312 282 272 275 271 265 260 259 260 255 249 255 260 247 214 194 176 191 205 193 198 201 214 225 205 185 171 173 182 182 190 193 198 207 204 214 225 226 228 228 229 234 236 239 244 246 246 243 241 240 240 242 245 246
197 192 188 178 167 166 168 166 168 151 137 139 145 151 155 163 185 2 5 354 351 348 344 336 318 297 291 288 278 278 289 286 271 274 274 265 259 256 256 257 258 255 249 255 251 225 219 218 206 208 197 197 205 220 230 222 207 194 193 193 194 200 196 196 202 199 204 212 218 224 225 229 236 241 242 243 244 245 248 246 240 241 241 241 242
189 188 192 182 162 162 171 169 162 150 144 147 151 156 158 155 135 65 35 20 19 16 9 2 350 325 304 295 286 279 278 275 270 270 264 254 257 258 253 248 250 257 257 260 260 240 223 225 216 222 215 207 211 220 225 219 214 214 214 210 206 204 195 192 197 201 208 211 214 217 221 228 229 235 241 245 245 241 247 252 246 243 244 244 243
186 188 195 185 158 163 181 174 159 151 152 155 159 160 159 147 121 88 61 44 38 32 25 19 11 4 347 321 304 289 275 269 265 265 262 255 258 259 255 247 244 254 258 259 263 256 236 231 226 230 228 224 224 228 229 226 224 226 230 227 216 210 207 206 203 209 218 214 201 196 208 220 221 228 236 243 251 246 243 250 249 246 246 247 247
184 188 195 184 161 173 193 173 148 150 158 159 163 162 156 142 117 96 74 54 44 36 28 23 16 12 7 358 342 321 288 262 257 261 263 260 257 256 256 252 244 243 244 246 249 245 235 229 226 223 221 231 235 240 240 237 238 237 238 236 227 221 222 222 215 217 226 219 204 208 221 232 234 239 244 247 254 255 247 248 251 251 249 248 249
184 189 193 187 173 181 197 168 140 150 163 163 166 164 157 146 130 112 85 57 43 32 26 20 14 11 8 4 359 352 337 281 251 251 255 256 253 250 251 250 246 242 237 235 232 235 236 231 228 222 217 228 239 248 252 249 245 242 242 241 237 232 233 233 224 225 235 233 221 223 233 243 246 249 255 256 255 257 255 253 255 255 253 250 249
187 189 192 196 185 176 178 157 142 155 167 169 170 169 167 162 156 144 100 50 34 25 21 18 11 7 5 3 2 359 353 335 276 256 255 255 252 249 249 248 247 245 241 236 229 233 240 237 233 226 220 227 235 244 251 248 241 241 243 240 236 232 236 237 228 230 240 240 230 224 228 237 245 252 256 258 259 260 261 260 258 256 255 253 251
188 186 189 200 195 179 168 153 150 163 171 175 176 177 181 179 179 176 137 32 25 19 17 15 8 2 1 1 2 0 356 348 325 279 260 257 255 248 245 244 245 244 239 235 228 228 234 235 233 226 218 222 228 233 239 236 229 233 242 243 237 230 233 236 229 230 236 237 233 225 225 232 242 252 256 256 259 262 265 264 261 258 256 255 252
189 185 189 201 204 195 175 155 157 169 177 182 185 188 191 191 197 201 208 8 13 10 7 5 2 357 355 356 358 0 358 352 340 313 268 252 249 243 240 241 245 245 239 233 228 225 227 229 230 225 215 214 216 220 229 230 223 225 237 243 242 236 232 235 234 235 235 234 235 234 237 246 253 258 258 256 256 260 263 265 264 261 259 257 254
189 185 189 202 208 210 196 171 169 177 184 190 194 195 197 203 213 224 263 320 340 347 349 349 350 351 349 349 352 357 358 355 347 331 299 261 251 246 243 244 246 247 243 237 233 230 229 229 229 222 212 208 207 213 225 231 228 228 233 236 241 240 232 228 231 236 238 236 239 244 252 260 261 257 256 255 255 257 261 265 267 267 265 262 259
190 185 188 199 207 211 206 191 183 186 191 194 197 199 204 214 223 238 266 292 310 321 330 333 338 342 344 345 346 350 352 354 350 339 323 291 266 253 247 244 243 243 242 240 238 235 233 231 228 224 222 220 218 220 227 234 234 233 233 230 233 237 230 224 226 233 238 242 246 250 253 254 251 248 253 258 260 263 265 267 268 267 266 263 261
191 188 189 194 204 210 208 194 188 191 196 196 197 203 211 222 230 246 265 284 300 311 321 325 329 333 337 340 340 342 345 349 349 343 333 312 285 263 249 242 239 238 239 240 239 237 237 237 236 236 237 235 232 231 232 236 237 232 229 229 229 232 231 228 229 234 239 245 248 250 249 243 240 246 255 258 260 263 262 263 263 262 263 262 261
194 192 193 196 201 208 205 195 189 191 197 198 199 205 215 224 230 244 263 286 300 310 320 321 322 324 326 329 330 333 338 343 347 344 337 325 306 277 252 240 236 234 232 235 237 238 239 241 241 241 242 240 238 238 234 233 234 231 227 229 231 232 233 229 229 236 241 243 244 246 246 240 241 251 259 258 257 258 255 253 252 252 255 258 260
197 195 197 199 204 208 206 198 192 193 198 200 200 205 213 221 229 243 263 283 296 305 314 314 315 317 318 321 324 328 332 337 343 343 337 329 315 287 257 241 231 226 224 225 228 231 234 238 241 243 243 239 236 238 237 230 227 227 224 225 227 226 227 226 228 235 239 239 239 239 238 236 245 260 266 266 266 263 260 255 250 248 250 253 257
197 199 201 203 208 210 208 203 198 197 200 202 203 205 211 222 231 247 266 278 288 297 305 309 312 315 315 317 320 323 325 329 335 338 334 326 312 288 261 240 228 218 213 214 219 222 228 235 239 241 242 238 231 231 234 229 225 225 223 222 222 221 222 223 226 229 231 237 240 242 242 240 251 265 269 271 271 268 265 261 257 254 254 256 259
197 201 204 207 211 210 209 208 203 201 202 204 205 207 213 223 233 248 264 274 284 292 301 308 313 317 317 317 318 319 318 320 327 331 329 321 308 286 258 237 224 208 199 203 208 211 218 226 229 230 234 236 233 230 229 227 225 223 219 214 211 210 210 209 214 220 225 236 244 250 257 259 262 265 266 268 269 268 267 265 262 260 260 262 263
200 204 206 209 213 212 212 211 206 204 204 205 207 209 216 223 233 251 265 275 282 289 299 306 310 314 315 314 317 317 313 313 319 326 324 316 306 280 242 227 214 199 190 190 194 196 199 200 203 208 211 220 224 224 225 225 222 221 217 211 205 202 202 200 204 213 224 238 247 252 257 260 260 260 258 257 258 259 261 261 259 258 258 260 262